When you browse on this site, cookies collect data to enhance your experience and personalize the content and advertising you see.
Visit our Privacy Policy to learn more. By continuing to use the site, you agree to this use of cookies and data.
  • In Latvia
  • List of Countries
  • For 7 days
  • Water Temperature
  • Weather Map
  • Weather Widgets
  • user-avatar
    Login

    Hourly Weather Zuski

    Today, 14 October, Monday

    Time Temperature Precipitation Wind Pressure Humidity
    00:00 +14°C° 0 mm 4 mps 749 mmHg 77%
    01:00 +14°C° 0 mm 4 mps 749 mmHg 77%
    02:00 +14°C° 0 mm 4 mps 749 mmHg 78%
    03:00 +14°C° 0 mm 5 mps 748 mmHg 78%
    04:00 +13°C° 0 mm 5 mps 748 mmHg 79%
    05:00 +14°C° 0 mm 5 mps 748 mmHg 77%
    06:00 +14°C° 0 mm 5 mps 748 mmHg 76%
    07:00 +14°C° 0 mm 5 mps 749 mmHg 75%
    08:00 +16°C° 0 mm 5 mps 749 mmHg 69%
    09:00 +17°C° 0 mm 5 mps 749 mmHg 64%
    10:00 +20°C° 0 mm 4 mps 749 mmHg 58%
    11:00 +21°C° 0 mm 4 mps 749 mmHg 56%
    12:00 +22°C° 0 mm 4 mps 749 mmHg 53%
    13:00 +24°C° 0 mm 3 mps 749 mmHg 51%
    14:00 +24°C° 0 mm 3 mps 749 mmHg 54%
    15:00 +23°C° 0 mm 2 mps 748 mmHg 58%
    16:00 +22°C° 0 mm 1 mps 748 mmHg 61%
    17:00 +21°C° 0 mm 1 mps 749 mmHg 65%
    18:00 +20°C° 0 mm 1 mps 749 mmHg 68%
    19:00 +17°C° 0 mm 0 mps 749 mmHg 72%
    20:00 +16°C° 0 mm 0 mps 749 mmHg 74%
    21:00 +18°C° 0 mm 1 mps 749 mmHg 76%
    22:00 +16°C° 0 mm 1 mps 749 mmHg 78%
    23:00 +16°C° 0 mm 1 mps 749 mmHg 80%

    Tomorrow, 15 October, Tuesday

    Time Temperature Precipitation Wind Pressure Humidity
    00:00 +16°C° 0 mm 2 mps 749 mmHg 81%
    01:00 +15°C° 0 mm 2 mps 749 mmHg 83%
    02:00 +15°C° 0 mm 2 mps 749 mmHg 85%
    03:00 +13°C° 0 mm 3 mps 748 mmHg 87%
    04:00 +13°C° 0 mm 3 mps 748 mmHg 89%
    05:00 +13°C° 0 mm 3 mps 748 mmHg 86%
    06:00 +13°C° 0 mm 4 mps 747 mmHg 83%
    07:00 +13°C° 0 mm 4 mps 747 mmHg 80%
    08:00 +14°C° 0 mm 5 mps 747 mmHg 74%
    09:00 +15°C° 0 mm 5 mps 746 mmHg 69%
    10:00 +17°C° 0 mm 5 mps 746 mmHg 64%
    11:00 +19°C° 0 mm 5 mps 746 mmHg 60%
    12:00 +20°C° 0 mm 5 mps 745 mmHg 57%
    13:00 +21°C° 0 mm 5 mps 745 mmHg 53%
    14:00 +21°C° 0 mm 4 mps 744 mmHg 56%
    15:00 +20°C° 0 mm 4 mps 744 mmHg 59%
    16:00 +20°C° 0 mm 3 mps 743 mmHg 61%
    17:00 +19°C° 0 mm 3 mps 743 mmHg 64%
    18:00 +18°C° 0 mm 4 mps 743 mmHg 66%
    19:00 +17°C° 0 mm 4 mps 743 mmHg 69%
    20:00 +15°C° 0 mm 4 mps 743 mmHg 70%
    21:00 +15°C° 0 mm 4 mps 743 mmHg 72%
    22:00 +14°C° 0 mm 3 mps 743 mmHg 74%
    23:00 +14°C° 0 mm 3 mps 743 mmHg 75%

    Day after tomorrow, 16 October, Wednesday

    Time Temperature Precipitation Wind Pressure Humidity
    00:00 +13°C° 0 mm 3 mps 743 mmHg 76%
    01:00 +13°C° 0 mm 3 mps 743 mmHg 77%
    02:00 +13°C° 0 mm 3 mps 743 mmHg 75%
    03:00 +13°C° 0 mm 4 mps 743 mmHg 74%
    04:00 +14°C° 0 mm 4 mps 743 mmHg 72%
    05:00 +14°C° 0 mm 4 mps 743 mmHg 75%
    06:00 +14°C° 0 mm 5 mps 743 mmHg 78%
    07:00 +14°C° 0 mm 5 mps 744 mmHg 82%
    08:00 +15°C° 0 mm 5 mps 744 mmHg 77%
    09:00 +16°C° 0 mm 5 mps 745 mmHg 73%
    10:00 +17°C° 0 mm 6 mps 745 mmHg 69%
    11:00 +17°C° 0 mm 6 mps 746 mmHg 66%
    12:00 +17°C° 0 mm 6 mps 746 mmHg 63%
    13:00 +17°C° 0 mm 6 mps 747 mmHg 60%
    14:00 +16°C° 0 mm 6 mps 747 mmHg 61%
    15:00 +16°C° 0 mm 5 mps 747 mmHg 62%
    16:00 +15°C° 0 mm 5 mps 747 mmHg 63%
    17:00 +14°C° 0 mm 4 mps 747 mmHg 65%
    18:00 +13°C° 0 mm 4 mps 747 mmHg 67%
    19:00 +12°C° 0 mm 4 mps 748 mmHg 68%
    20:00 +12°C° 0 mm 4 mps 748 mmHg 70%
    21:00 +11°C° 0 mm 4 mps 748 mmHg 72%
    22:00 +11°C° 0 mm 4 mps 749 mmHg 74%
    23:00 +10°C° 0 mm 3 mps 749 mmHg 76%

    17 October, Thursday

    Time Temperature Precipitation Wind Pressure Humidity
    00:00 +10°C° 0 mm 3 mps 749 mmHg 78%
    01:00 +10°C° 0 mm 3 mps 749 mmHg 80%
    02:00 +9°C° 0 mm 3 mps 749 mmHg 81%
    03:00 +9°C° 0 mm 3 mps 749 mmHg 81%
    04:00 +9°C° 0 mm 3 mps 749 mmHg 82%
    05:00 +9°C° 0 mm 3 mps 749 mmHg 81%
    06:00 +9°C° 0 mm 3 mps 749 mmHg 81%
    07:00 +9°C° 0 mm 3 mps 749 mmHg 80%
    08:00 +11°C° 0 mm 4 mps 749 mmHg 73%
    09:00 +13°C° 0 mm 4 mps 749 mmHg 65%
    10:00 +15°C° 0 mm 4 mps 749 mmHg 58%
    11:00 +15°C° 0 mm 4 mps 749 mmHg 55%
    12:00 +17°C° 0 mm 4 mps 749 mmHg 52%
    13:00 +18°C° 0 mm 3 mps 749 mmHg 49%
    14:00 +18°C° 0 mm 3 mps 749 mmHg 52%
    15:00 +17°C° 0 mm 2 mps 749 mmHg 55%
    16:00 +16°C° 0 mm 2 mps 749 mmHg 58%
    17:00 +15°C° 0 mm 2 mps 749 mmHg 59%
    18:00 +15°C° 0 mm 2 mps 749 mmHg 61%
    19:00 +14°C° 0 mm 2 mps 749 mmHg 62%
    20:00 +14°C° 0 mm 2 mps 749 mmHg 62%
    21:00 +14°C° 0 mm 1 mps 749 mmHg 62%
    22:00 +13°C° 0 mm 1 mps 749 mmHg 62%
    23:00 +13°C° 0 mm 1 mps 750 mmHg 63%

    18 October, Friday

    Time Temperature Precipitation Wind Pressure Humidity
    00:00 +13°C° 0 mm 1 mps 750 mmHg 64%
    01:00 +12°C° 0 mm 1 mps 750 mmHg 65%
    02:00 +12°C° 0 mm 1 mps 750 mmHg 65%
    03:00 +12°C° 0 mm 1 mps 750 mmHg 66%
    04:00 +11°C° 0 mm 1 mps 750 mmHg 66%
    05:00 +12°C° 0 mm 1 mps 750 mmHg 66%
    06:00 +12°C° 0 mm 1 mps 750 mmHg 66%
    07:00 +12°C° 0 mm 1 mps 750 mmHg 66%
    08:00 +13°C° 0 mm 1 mps 750 mmHg 64%
    09:00 +14°C° 0 mm 1 mps 751 mmHg 62%
    10:00 +15°C° 0 mm 1 mps 751 mmHg 60%
    11:00 +16°C° 0 mm 1 mps 751 mmHg 58%
    12:00 +18°C° 0 mm 1 mps 751 mmHg 56%
    13:00 +19°C° 0 mm 1 mps 751 mmHg 54%
    14:00 +18°C° 0 mm 1 mps 750 mmHg 56%
    15:00 +18°C° 0 mm 1 mps 750 mmHg 59%
    16:00 +16°C° 0 mm 1 mps 750 mmHg 62%
    17:00 +15°C° 0 mm 1 mps 750 mmHg 65%
    18:00 +14°C° 0 mm 1 mps 750 mmHg 68%
    19:00 +13°C° 0 mm 1 mps 751 mmHg 71%
    20:00 +13°C° 0 mm 1 mps 751 mmHg 73%
    21:00 +12°C° 0 mm 1 mps 751 mmHg 75%
    22:00 +12°C° 0 mm 1 mps 751 mmHg 76%
    23:00 +12°C° 0 mm 1 mps 751 mmHg 78%

    19 October, Saturday

    Time Temperature Precipitation Wind Pressure Humidity
    00:00 +12°C° 0 mm 1 mps 751 mmHg 81%
    01:00 +12°C° 0 mm 2 mps 750 mmHg 83%
    02:00 +12°C° 0 mm 2 mps 750 mmHg 85%
    03:00 +12°C° 0 mm 2 mps 750 mmHg 87%
    04:00 +10°C° 0 mm 2 mps 750 mmHg 90%
    05:00 +12°C° 0 mm 2 mps 750 mmHg 90%
    06:00 +12°C° 0 mm 2 mps 750 mmHg 91%
    07:00 +12°C° 0 mm 2 mps 750 mmHg 91%
    08:00 +13°C° 0 mm 2 mps 750 mmHg 86%
    09:00 +14°C° 0 mm 3 mps 750 mmHg 80%
    10:00 +16°C° 0 mm 3 mps 750 mmHg 75%
    11:00 +17°C° 0 mm 3 mps 749 mmHg 71%
    12:00 +18°C° 0 mm 3 mps 749 mmHg 68%
    13:00 +19°C° 0 mm 3 mps 749 mmHg 65%
    14:00 +18°C° 0 mm 3 mps 748 mmHg 68%
    15:00 +18°C° 0 mm 3 mps 748 mmHg 72%
    16:00 +17°C° 0 mm 3 mps 748 mmHg 75%
    17:00 +16°C° 0 mm 3 mps 747 mmHg 78%
    18:00 +14°C° 0 mm 3 mps 747 mmHg 82%
    19:00 +13°C° 0 mm 3 mps 747 mmHg 85%
    20:00 +13°C° 0 mm 3 mps 747 mmHg 85%
    21:00 +13°C° 0 mm 3 mps 747 mmHg 85%
    22:00 +13°C° 0 mm 3 mps 747 mmHg 85%
    23:00 +13°C° 0 mm 3 mps 746 mmHg 86%
    Show more